Location: Malvern Link
(52.1333°N, 2.3000°W)
Time: 01:04:57
(UTC+00:00)

QB50P2 - Pass Details

Date: 04 July 2022
Orbit: 590 x 605 km, 97.9° (Epoch: 15 August)

Event Time Altitude Azimuth Distance (km) Brightness Sun altitude
Rises 02:10:57 0° 11° (N) 2,865 ? -10.7°
Reaches altitude 10° 02:13:09 10° 7° (N) 1,959 ? -10.6°
Maximum altitude 02:17:18 55° 290° (WNW) 735 ? -10.3°
Enters shadow 02:20:52 14° 215° (SW) 1,722 ? -10.0°
